Time,TemperatureF,DewpointF,PressureIn,WindDirection,WindDirectionDegrees,WindSpeedMPH,WindSpeedGustMPH,Humidity,HourlyPrecipIn,Conditions,Clouds,dailyrainin,SoftwareType,DateUTC
2013-06-26 00:00:00,77.0,35.0,29.96,SE,133,4.0,9.0,21,0.00,,,-99.99,,2013-06-26 06:00:00,
2013-06-26 00:44:00,77.0,35.0,29.96,SE,133,4.0,9.0,21,0.00,,,-99.99,,2013-06-26 06:44:00,
2013-06-26 00:53:00,77.0,35.0,29.96,SE,133,4.0,9.0,21,0.00,,,-99.99,,2013-06-26 06:53:00,
2013-06-26 01:00:00,77.0,35.0,29.96,SE,136,4.0,8.0,21,0.00,,,-99.99,,2013-06-26 07:00:00,
2013-06-26 01:43:00,77.0,35.0,29.96,SE,136,4.0,8.0,21,0.00,,,-99.99,,2013-06-26 07:43:00,
2013-06-26 01:53:00,77.0,35.0,29.96,SE,136,4.0,8.0,21,0.00,,,-99.99,,2013-06-26 07:53:00,
2013-06-26 03:00:00,74.0,34.0,29.96,SSE,159,5.0,8.0,23,0.00,,,-99.99,,2013-06-26 09:00:00,
2013-06-26 03:43:00,74.0,34.0,29.96,SSE,159,5.0,8.0,23,0.00,,,-99.99,,2013-06-26 09:43:00,
2013-06-26 03:53:00,74.0,34.0,29.96,SSE,159,5.0,8.0,23,0.00,,,-99.99,,2013-06-26 09:53:00,
2013-06-26 04:00:00,74.0,34.0,29.97,SSE,161,5.0,9.0,22,0.00,,,-99.99,,2013-06-26 10:00:00,
2013-06-26 04:34:00,74.0,34.0,29.97,SSE,161,5.0,9.0,22,0.00,,,-99.99,,2013-06-26 10:34:00,
2013-06-26 04:43:00,74.0,34.0,29.97,SSE,161,5.0,9.0,22,0.00,,,-99.99,,2013-06-26 10:43:00,
2013-06-26 04:53:00,74.0,34.0,29.97,SSE,161,5.0,9.0,22,0.00,,,-99.99,,2013-06-26 10:53:00,
2013-06-26 05:00:00,72.0,34.0,29.99,SSE,160,4.0,8.0,24,0.00,,,-99.99,,2013-06-26 11:00:00,
2013-06-26 05:44:00,72.0,34.0,29.99,SSE,160,4.0,8.0,24,0.00,,,-99.99,,2013-06-26 11:44:00,
2013-06-26 05:52:00,72.0,34.0,29.99,SSE,160,4.0,8.0,24,0.00,,,-99.99,,2013-06-26 11:52:00,
2013-06-26 08:00:00,77.0,38.0,30.05,NW,312,2.0,5.0,24,0.00,,,-99.99,,2013-06-26 14:00:00,
2013-06-26 08:42:00,77.0,38.0,30.05,NW,312,2.0,5.0,24,0.00,,,-99.99,,2013-06-26 14:42:00,
2013-06-26 08:53:00,77.0,38.0,30.05,NW,312,2.0,5.0,24,0.00,,,-99.99,,2013-06-26 14:53:00,
2013-06-26 09:00:00,80.0,37.0,30.07,NNW,343,3.0,6.0,20,0.00,,,-99.99,,2013-06-26 15:00:00,
2013-06-26 09:44:00,80.0,37.0,30.07,NNW,343,3.0,6.0,20,0.00,,,-99.99,,2013-06-26 15:44:00,
2013-06-26 09:53:00,80.0,37.0,30.07,NNW,343,3.0,6.0,20,0.00,,,-99.99,,2013-06-26 15:53:00,
2013-06-26 10:00:00,86.0,38.0,30.08,NE,41,3.0,10.0,18,0.00,,,-99.99,,2013-06-26 16:00:00,
2013-06-26 10:43:00,86.0,38.0,30.08,NE,41,3.0,10.0,18,0.00,,,-99.99,,2013-06-26 16:43:00,
2013-06-26 10:52:00,86.0,38.0,30.08,NE,41,3.0,10.0,18,0.00,,,-99.99,,2013-06-26 16:52:00,
2013-06-26 11:00:00,89.0,38.0,30.08,ENE,60,3.0,10.0,16,0.00,,,-99.99,,2013-06-26 17:00:00,
2013-06-26 11:43:00,89.0,38.0,30.08,ENE,60,3.0,10.0,16,0.00,,,-99.99,,2013-06-26 17:43:00,
2013-06-26 11:52:00,89.0,38.0,30.08,ENE,60,3.0,10.0,16,0.00,,,-99.99,,2013-06-26 17:52:00,
2013-06-26 15:00:00,96.0,36.0,30.04,WNW,291,6.0,14.0,12,0.00,,,-99.99,,2013-06-26 21:00:00,
2013-06-26 15:43:00,96.0,36.0,30.04,WNW,291,6.0,14.0,12,0.00,,,-99.99,,2013-06-26 21:43:00,
2013-06-26 15:52:00,96.0,36.0,30.04,WNW,291,6.0,14.0,12,0.00,,,-99.99,,2013-06-26 21:52:00,
2013-06-26 16:00:00,97.0,36.0,30.03,WNW,297,7.0,17.0,11,0.00,,,-99.99,,2013-06-26 22:00:00,
2013-06-26 16:43:00,97.0,36.0,30.03,WNW,297,7.0,17.0,11,0.00,,,-99.99,,2013-06-26 22:43:00,
2013-06-26 16:52:00,97.0,36.0,30.03,WNW,297,7.0,17.0,11,0.00,,,-99.99,,2013-06-26 22:52:00,
2013-06-26 17:00:00,98.0,35.0,30.02,West,273,5.0,13.0,11,0.00,,,-99.99,,2013-06-26 23:00:00,
2013-06-26 17:43:00,98.0,35.0,30.02,West,273,5.0,13.0,11,0.00,,,-99.99,,2013-06-26 23:43:00,
2013-06-26 17:53:00,98.0,35.0,30.02,West,273,5.0,13.0,11,0.00,,,-99.99,,2013-06-26 23:53:00,
2013-06-26 20:00:00,97.0,34.0,29.99,WNW,303,4.0,8.0,11,0.00,,,-99.99,,2013-06-27 02:00:00,
2013-06-26 20:42:00,97.0,34.0,29.99,WNW,303,4.0,8.0,11,0.00,,,-99.99,,2013-06-27 02:42:00,
2013-06-26 20:52:00,97.0,34.0,29.99,WNW,303,4.0,8.0,11,0.00,,,-99.99,,2013-06-27 02:52:00,
2013-06-26 21:00:00,94.0,34.0,30.00,WSW,238,2.0,5.0,12,0.00,,,-99.99,,2013-06-27 03:00:00,
2013-06-26 21:42:00,94.0,34.0,30.00,WSW,238,2.0,5.0,12,0.00,,,-99.99,,2013-06-27 03:42:00,
2013-06-26 21:52:00,94.0,34.0,30.00,WSW,238,2.0,5.0,12,0.00,,,-99.99,,2013-06-27 03:52:00,
2013-06-26 22:00:00,87.0,35.0,30.01,South,169,3.0,5.0,15,0.00,,,-99.99,,2013-06-27 04:00:00,
2013-06-26 22:42:00,87.0,35.0,30.01,South,169,3.0,5.0,15,0.00,,,-99.99,,2013-06-27 04:42:00,
2013-06-26 22:53:00,87.0,35.0,30.01,South,169,3.0,5.0,15,0.00,,,-99.99,,2013-06-27 04:53:00,
2013-06-26 23:00:00,82.0,36.0,30.04,ESE,115,3.0,7.0,19,0.00,,,-99.99,,2013-06-27 05:00:00,
2013-06-26 23:32:00,82.0,36.0,30.04,ESE,115,3.0,7.0,19,0.00,,,-99.99,,2013-06-27 05:32:00,
2013-06-26 23:42:00,82.0,36.0,30.04,ESE,115,3.0,7.0,19,0.00,,,-99.99,,2013-06-27 05:42:00,
2013-06-26 23:53:00,82.0,36.0,30.04,ESE,115,3.0,7.0,19,0.00,,,-99.99,,2013-06-27 05:53:00,